| time (UTC) | temp C | wind direction | speed KPH | gust KPH | rain 1hr cm | rain 24hr cm | rain mn cm | humidity % | barometer mb |
| 20260505040440 | 18 | 346 | 4.8 | 4.8 | 0.00 | 0.00 | 0.00 | 61 | |
| 20260505035937 | 18 | 300 | 6.4 | 8.0 | 0.00 | 0.00 | 0.00 | 59 | |
| 20260505035432 | 18 | 302 | 4.8 | 6.4 | 0.00 | 0.00 | 0.00 | 57 | |
| 20260505034930 | 18 | 16 | 1.6 | 3.2 | 0.00 | 0.00 | 0.00 | 57 | |
| 20260505034426 | 18 | 9 | 4.8 | 4.8 | 0.00 | 0.00 | 0.00 | 57 | |
| 20260505033924 | 19 | 345 | 3.2 | 6.4 | 0.00 | 0.00 | 0.00 | 57 | |
| 20260505033420 | 19 | 336 | 6.4 | 9.7 | 0.00 | 0.00 | 0.00 | 56 | |
| 20260505032918 | 19 | 354 | 4.8 | 6.4 | 0.00 | 0.00 | 0.00 | 56 | |
| 20260505032415 | 19 | 354 | 6.4 | 8.0 | 0.00 | 0.00 | 0.00 | 55 | |
| 20260505031912 | 20 | 4 | 9.7 | 9.7 | 0.00 | 0.00 | 0.00 | 54 | |
| 20260505031409 | 20 | 84 | 8.0 | 8.0 | 0.00 | 0.00 | 0.00 | 53 | |
| 20260505030906 | 20 | 23 | 3.2 | 4.8 | 0.00 | 0.00 | 0.00 | 53 | |
| 20260505030401 | 20 | 80 | 4.8 | 4.8 | 0.00 | 0.00 | 0.00 | 52 | |
| 20260505025857 | 20 | 355 | 3.2 | 4.8 | 0.00 | 0.00 | 0.00 | 51 | |
| 20260505025355 | 20 | 337 | 6.4 | 9.7 | 0.00 | 0.00 | 0.00 | 50 | |
| 20260505024854 | 21 | 314 | 11.3 | 14.5 | 0.00 | 0.00 | 0.00 | 50 | |
| 20260505024351 | 20 | 4 | 9.7 | 14.5 | 0.00 | 0.00 | 0.00 | 50 | |
| 20260505023847 | 21 | 332 | 4.8 | 16.1 | 0.00 | 0.00 | 0.00 | 50 | |
| 20260505023344 | 21 | 334 | 8.0 | 16.1 | 0.00 | 0.00 | 0.00 | 50 | |
| 20260505022842 | 21 | 320 | 17.7 | 17.7 | 0.00 | 0.00 | 0.00 | 50 | |
| 20260505022338 | 21 | 359 | 11.3 | 16.1 | 0.00 | 0.00 | 0.00 | 49 | |
| 20260505021836 | 21 | 339 | 11.3 | 19.3 | 0.00 | 0.00 | 0.00 | 49 | |
| 20260505021332 | 21 | 325 | 14.5 | 19.3 | 0.00 | 0.00 | 0.00 | 47 | |
| 20260505020828 | 21 | 312 | 8.0 | 17.7 | 0.00 | 0.00 | 0.00 | 47 | |
| 20260505020324 | 21 | 325 | 9.7 | 14.5 | 0.00 | 0.00 | 0.00 | 46 | |
| 20260505015821 | 22 | 353 | 11.3 | 19.3 | 0.00 | 0.00 | 0.00 | 45 | |
| 20260505015318 | 22 | 332 | 12.9 | 20.9 | 0.00 | 0.00 | 0.00 | 44 | |
| 20260505014815 | 22 | 325 | 12.9 | 19.3 | 0.00 | 0.00 | 0.00 | 44 | |
| 20260505014312 | 22 | 321 | 16.1 | 22.5 | 0.00 | 0.00 | 0.00 | 43 | |
| 20260505013808 | 23 | 325 | 17.7 | 19.3 | 0.00 | 0.00 | 0.00 | 42 | |
| 20260505013306 | 23 | 325 | 16.1 | 22.5 | 0.00 | 0.00 | 0.00 | 42 | |
| 20260505012804 | 23 | 350 | 14.5 | 20.9 | 0.00 | 0.00 | 0.00 | 40 | |
| 20260505012304 | 24 | 316 | 12.9 | 17.7 | 0.00 | 0.00 | 0.00 | 40 | |
| 20260505011757 | 25 | 330 | 9.7 | 17.7 | 0.00 | 0.00 | 0.00 | 41 | |
| 20260505011255 | 25 | 325 | 12.9 | 17.7 | 0.00 | 0.00 | 0.00 | 40 | |
| 20260505010750 | 26 | 323 | 9.7 | 19.3 | 0.00 | 0.00 | 0.00 | 39 | |
| 20260505010246 | 26 | 299 | 11.3 | 14.5 | 0.00 | 0.00 | 0.00 | 35 | |
| 20260505005743 | 26 | 322 | 14.5 | 20.9 | 0.00 | 0.00 | 0.00 | 35 | |
| 20260505005240 | 26 | 324 | 11.3 | 16.1 | 0.00 | 0.00 | 0.00 | 34 | |
| 20260505004737 | 26 | 300 | 14.5 | 16.1 | 0.00 | 0.00 | 0.00 | 32 | |
| 20260505004233 | 26 | 324 | 12.9 | 19.3 | 0.00 | 0.00 | 0.00 | 36 | |
| 20260505003731 | 26 | 300 | 9.7 | 14.5 | 0.00 | 0.00 | 0.00 | 35 | |
| 20260505003228 | 27 | 337 | 12.9 | 14.5 | 0.00 | 0.00 | 0.00 | 36 | |
| 20260505002725 | 27 | 331 | 12.9 | 16.1 | 0.00 | 0.00 | 0.00 | 34 | |
| 20260505002222 | 27 | 301 | 9.7 | 11.3 | 0.00 | 0.00 | 0.00 | 32 | |
| 20260505001719 | 27 | 301 | 9.7 | 11.3 | 0.00 | 0.00 | 0.00 | 32 | |
| 20260505001217 | 27 | 311 | 12.9 | 12.9 | 0.00 | 0.00 | 0.00 | 32 | |
| 20260505000714 | 27 | 311 | 12.9 | 12.9 | 0.00 | 0.00 | 0.00 | 32 | |
| 20260505000212 | 27 | 311 | 12.9 | 16.1 | 0.00 | 0.00 | 0.00 | 31 | |
| 20260504235708 | 27 | 314 | 14.5 | 19.3 | 0.00 | 0.00 | 0.00 | 32 | |
| 20260504235204 | 27 | 306 | 19.3 | 20.9 | 0.00 | 0.00 | 0.00 | 32 | |
| 20260504234701 | 27 | 267 | 8.0 | 11.3 | 0.00 | 0.00 | 0.00 | 31 | |
| 20260504234158 | 27 | 243 | 6.4 | 14.5 | 0.00 | 0.00 | 0.00 | 31 | |
| 20260504233654 | 27 | 346 | 4.8 | 9.7 | 0.00 | 0.00 | 0.00 | 31 | |
| 20260504233150 | 27 | 326 | 11.3 | 20.9 | 0.00 | 0.00 | 0.00 | 31 | |
| 20260504232648 | 27 | 301 | 8.0 | 14.5 | 0.00 | 0.00 | 0.00 | 32 | |
| 20260504232145 | 27 | 323 | 14.5 | 24.1 | 0.00 | 0.00 | 0.00 | 31 | |
| 20260504231642 | 27 | 291 | 16.1 | 17.7 | 0.00 | 0.00 | 0.00 | 32 | |
| 20260504231138 | 27 | 303 | 14.5 | 20.9 | 0.00 | 0.00 | 0.00 | 32 | |
| 20260504230634 | 27 | 341 | 12.9 | 17.7 | 0.00 | 0.00 | 0.00 | 31 | |
| 20260504230133 | 27 | 299 | 14.5 | 17.7 | 0.00 | 0.00 | 0.00 | 31 | |
| 20260504225631 | 27 | 298 | 14.5 | 19.3 | 0.00 | 0.00 | 0.00 | 31 | |
| 20260504225127 | 27 | 310 | 19.3 | 20.9 | 0.00 | 0.00 | 0.00 | 30 | |
| 20260504224624 | 27 | 297 | 17.7 | 19.3 | 0.00 | 0.00 | 0.00 | 30 | |
| 20260504224120 | 27 | 340 | 6.4 | 14.5 | 0.00 | 0.00 | 0.00 | 30 | |
| 20260504223617 | 27 | 300 | 14.5 | 17.7 | 0.00 | 0.00 | 0.00 | 31 | |
| 20260504223113 | 27 | 303 | 6.4 | 16.1 | 0.00 | 0.00 | 0.00 | 29 | |
| 20260504222610 | 27 | 288 | 8.0 | 9.7 | 0.00 | 0.00 | 0.00 | 30 | |
| 20260504222108 | 27 | 177 | 3.2 | 4.8 | 0.00 | 0.00 | 0.00 | 30 | |
| 20260504221605 | 27 | 271 | 1.6 | 11.3 | 0.00 | 0.00 | 0.00 | 31 | |
| 20260504221102 | 27 | 93 | 4.8 | 9.7 | 0.00 | 0.00 | 0.00 | 31 | |
| 20260504220558 | 27 | 317 | 8.0 | 17.7 | 0.00 | 0.00 | 0.00 | 32 | |
| 20260504220055 | 27 | 323 | 6.4 | 12.9 | 0.00 | 0.00 | 0.00 | 31 | |
| 20260504215552 | 27 | 330 | 0.0 | 4.8 | 0.00 | 0.00 | 0.00 | 32 | |
| 20260504215049 | 26 | 324 | 6.4 | 8.0 | 0.00 | 0.00 | 0.00 | 32 | |
| 20260504214544 | 26 | 345 | 9.7 | 17.7 | 0.00 | 0.00 | 0.00 | 32 | |
| 20260504214042 | 26 | 347 | 11.3 | 14.5 | 0.00 | 0.00 | 0.00 | 32 | |
| 20260504213538 | 27 | 97 | 3.2 | 8.0 | 0.00 | 0.00 | 0.00 | 32 | |
| 20260504213035 | 26 | 332 | 6.4 | 6.4 | 0.00 | 0.00 | 0.00 | 35 | |
| 20260504212531 | 26 | 334 | 8.0 | 11.3 | 0.00 | 0.00 | 0.00 | 33 | |
| 20260504212028 | 26 | 340 | 6.4 | 11.3 | 0.00 | 0.00 | 0.00 | 33 | |
| 20260504211525 | 26 | 339 | 4.8 | 14.5 | 0.00 | 0.00 | 0.00 | 34 | |
| 20260504211022 | 26 | 322 | 16.1 | 19.3 | 0.00 | 0.00 | 0.00 | 33 | |
| 20260504210519 | 26 | 341 | 4.8 | 6.4 | 0.00 | 0.00 | 0.00 | 34 | |
| 20260504210016 | 25 | 333 | 6.4 | 11.3 | 0.00 | 0.00 | 0.00 | 35 | |
| 20260504205514 | 25 | 340 | 8.0 | 14.5 | 0.00 | 0.00 | 0.00 | 36 | |
| 20260504205012 | 26 | 334 | 9.7 | 16.1 | 0.00 | 0.00 | 0.00 | 35 | |
| 20260504204509 | 26 | 319 | 1.6 | 8.0 | 0.00 | 0.00 | 0.00 | 37 | |
| 20260504204008 | 25 | 356 | 6.4 | 14.5 | 0.00 | 0.00 | 0.00 | 37 | |
| 20260504203506 | 25 | 1 | 11.3 | 16.1 | 0.00 | 0.00 | 0.00 | 37 | |
| 20260504203002 | 25 | 342 | 8.0 | 19.3 | 0.00 | 0.00 | 0.00 | 37 | |
| 20260504202458 | 25 | 335 | 8.0 | 9.7 | 0.00 | 0.00 | 0.00 | 38 | |
| 20260504201955 | 25 | 344 | 9.7 | 16.1 | 0.00 | 0.00 | 0.00 | 38 | |
| 20260504201452 | 25 | 7 | 12.9 | 14.5 | 0.00 | 0.00 | 0.00 | 37 | |
| 20260504200950 | 25 | 324 | 8.0 | 14.5 | 0.00 | 0.00 | 0.00 | 38 | |
| 20260504200446 | 25 | 354 | 6.4 | 11.3 | 0.00 | 0.00 | 0.00 | 37 | |
| 20260504195943 | 24 | 315 | 9.7 | 12.9 | 0.00 | 0.00 | 0.00 | 37 | |
| 20260504195439 | 24 | 314 | 11.3 | 11.3 | 0.00 | 0.00 | 0.00 | 38 | |
| 20260504194936 | 24 | 355 | 4.8 | 9.7 | 0.00 | 0.00 | 0.00 | 38 | |
| 20260504194432 | 24 | 283 | 9.7 | 14.5 | 0.00 | 0.00 | 0.00 | 38 | |
| 20260504193928 | 24 | 346 | 8.0 | 11.3 | 0.00 | 0.00 | 0.00 | 37 | |
| 20260504193425 | 24 | 296 | 11.3 | 19.3 | 0.00 | 0.00 | 0.00 | 40 | |
| 20260504192924 | 23 | 302 | 12.9 | 16.1 | 0.00 | 0.00 | 0.00 | 41 | |
| 20260504192421 | 23 | 351 | 8.0 | 17.7 | 0.00 | 0.00 | 0.00 | 41 | |
| 20260504191920 | 23 | 343 | 11.3 | 16.1 | 0.00 | 0.00 | 0.00 | 41 | |
| 20260504191418 | 23 | 343 | 11.3 | 20.9 | 0.00 | 0.00 | 0.00 | 41 | |
| 20260504190912 | 23 | 274 | 6.4 | 12.9 | 0.00 | 0.00 | 0.00 | 42 | |
| 20260504190408 | 23 | 283 | 11.3 | 14.5 | 0.00 | 0.00 | 0.00 | 42 | |
| 20260504185905 | 23 | 293 | 6.4 | 16.1 | 0.00 | 0.00 | 0.00 | 42 | |
| 20260504185403 | 23 | 290 | 14.5 | 20.9 | 0.00 | 0.00 | 0.00 | 41 | |
| 20260504184858 | 23 | 268 | 6.4 | 14.5 | 0.00 | 0.00 | 0.00 | 44 | |
| 20260504184354 | 23 | 292 | 4.8 | 9.7 | 0.00 | 0.00 | 0.00 | 45 | |
| 20260504183850 | 24 | 192 | 4.8 | 4.8 | 0.00 | 0.00 | 0.00 | 45 | |
| 20260504183348 | 24 | 179 | 1.6 | 3.2 | 0.00 | 0.00 | 0.00 | 45 | |
| 20260504182845 | 23 | 0 | 1.6 | 3.2 | 0.00 | 0.00 | 0.00 | 47 | |
| 20260504182343 | 23 | 96 | 4.8 | 8.0 | 0.00 | 0.00 | 0.00 | 46 | |
| 20260504181839 | 22 | 293 | 3.2 | 6.4 | 0.00 | 0.00 | 0.00 | 47 | |
| 20260504181337 | 23 | 261 | 1.6 | 4.8 | 0.00 | 0.00 | 0.00 | 47 | |
| 20260504180835 | 23 | 342 | 3.2 | 4.8 | 0.00 | 0.00 | 0.00 | 48 | |
| 20260504180333 | 22 | 45 | 1.6 | 4.8 | 0.00 | 0.00 | 0.00 | 49 | |
| 20260504175832 | 22 | 49 | 1.6 | 3.2 | 0.00 | 0.00 | 0.00 | 49 | |
| 20260504175328 | 22 | 298 | 3.2 | 4.8 | 0.00 | 0.00 | 0.00 | 48 | |
| 20260504174826 | 22 | 88 | 3.2 | 4.8 | 0.00 | 0.00 | 0.00 | 50 | |
| 20260504174323 | 22 | 252 | 3.2 | 3.2 | 0.00 | 0.00 | 0.00 | 49 | |
| 20260504173820 | 22 | 275 | 4.8 | 4.8 | 0.00 | 0.00 | 0.00 | 49 | |
| 20260504173317 | 21 | 307 | 1.6 | 3.2 | 0.00 | 0.00 | 0.00 | 49 | |
| 20260504172814 | 21 | 44 | 3.2 | 3.2 | 0.00 | 0.00 | 0.00 | 49 | |
| 20260504172310 | 21 | 291 | 4.8 | 6.4 | 0.00 | 0.00 | 0.00 | 50 | |
| 20260504171806 | 22 | 259 | 3.2 | 4.8 | 0.00 | 0.00 | 0.00 | 49 | |
| 20260504171304 | 22 | 58 | 1.6 | 3.2 | 0.00 | 0.00 | 0.00 | 51 | |
| 20260504170801 | 21 | 89 | 0.0 | 3.2 | 0.00 | 0.00 | 0.00 | 52 | |
| 20260504170257 | 21 | 321 | 3.2 | 4.8 | 0.00 | 0.00 | 0.00 | 53 | |
| 20260504160216 | 17 | 70 | 4.8 | 4.8 | 0.00 | 0.00 | 0.00 | 64 | |
| 20260504151144 | 15 | 72 | 4.8 | 6.4 | 0.00 | 0.00 | 0.00 | 76 | |
| 20260504150641 | 14 | 79 | 3.2 | 6.4 | 0.00 | 0.00 | 0.00 | 78 | |
| 20260504150138 | 13 | 61 | 1.6 | 9.7 | 0.00 | 0.00 | 0.00 | 78 | |
| 20260504141107 | 12 | 70 | 6.4 | 8.0 | 0.00 | 0.00 | 0.00 | 86 | |
| 20260504140603 | 11 | 69 | 4.8 | 6.4 | 0.00 | 0.00 | 0.00 | 88 | |
| 20260504130527 | 10 | 72 | 4.8 | 8.0 | 0.00 | 0.00 | 0.00 | 91 | |
| 20260504110415 | 11 | 317 | 1.6 | 4.8 | 0.00 | 0.00 | 0.00 | 87 | |
| 20260504100332 | 11 | 39 | 3.2 | 6.4 | 0.00 | 0.00 | 0.00 | 85 | |
| 20260504081725 | 12 | 46 | 3.2 | 6.4 | 0.00 | 0.00 | 0.00 | 84 | |
| 20260504081222 | 13 | 0 | 3.2 | 4.8 | 0.00 | 0.00 | 0.00 | 84 | |
| 20260504080718 | 13 | 41 | 4.8 | 6.4 | 0.00 | 0.00 | 0.00 | 82 | |
| 20260504080215 | 13 | 56 | 3.2 | 6.4 | 0.00 | 0.00 | 0.00 | 81 | |
| 20260504070142 | 14 | 68 | 4.8 | 8.0 | 0.00 | 0.00 | 0.00 | 78 | |
| 20260504050531 | 17 | 8 | 4.8 | 6.4 | 0.00 | 0.00 | 0.00 | 62 | |
| 20260504045525 | 18 | 6 | 4.8 | 6.4 | 0.00 | 0.00 | 0.00 | 60 | |
| 20260504045020 | 18 | 4 | 3.2 | 4.8 | 0.00 | 0.00 | 0.00 | 58 | |
| 20260504044518 | 19 | 29 | 3.2 | 3.2 | 0.00 | 0.00 | 0.00 | 55 | |
| 20260504044015 | 20 | 5 | 3.2 | 4.8 | 0.00 | 0.00 | 0.00 | 53 | |
| 20260504043511 | 20 | 13 | 3.2 | 4.8 | 0.00 | 0.00 | 0.00 | 51 | |
| 20260504043009 | 20 | 9 | 3.2 | 4.8 | 0.00 | 0.00 | 0.00 | 51 | |
| 20260504042506 | 20 | 3 | 3.2 | 3.2 | 0.00 | 0.00 | 0.00 | 52 | |
| 20260504042003 | 20 | 358 | 3.2 | 4.8 | 0.00 | 0.00 | 0.00 | 49 | |
| 20260504041459 | 20 | 9 | 3.2 | 4.8 | 0.00 | 0.00 | 0.00 | 49 | |
| 20260504040954 | 20 | 0 | 3.2 | 3.2 | 0.00 | 0.00 | 0.00 | 50 |